Regional Weather Roundup
Issued by NWS

Home | Current Version | Previous Version | Graphics & Text | Print | Product List | Glossary On
Versions: 1 2 3 4 5 6 7 8 9 10 11 12 13 14 15 16 17 18 19 20 21 22 23 24 25 26 27 28 29 30 31 32 33 34 35 36 37 38 39 40 41 42 43 44 45 46 47 48 49 50
000
ASUS43 KBIS 302001
RWRND

NORTH DAKOTA REGIONAL WEATHER ROUNDUP
NATIONAL WEATHER SERVICE BISMARCK ND
200 PM CST FRI JAN 30 2015

NOTE: "FAIR" INDICATES FEW OR NO CLOUDS BELOW 12,000 FEET WITH NO
SIGNIFICANT WEATHER AND/OR OBSTRUCTIONS TO VISIBILITY.


NDZ001>003-009>011-017-302100-
NORTHWEST NORTH DAKOTA

CITY           SKY/WX    TMP DP  RH WIND       PRES   REMARKS
WILLISTON      SUNNY     39  26  59 NW10      30.19F
MINOT          PTSUNNY   33  27  78 NW20      30.13S
MINOT AFB      CLOUDY    29  29  99 NW18      30.13R WCI  16
$$

NDZ018>021-031>035-040>046-302100-
SOUTHWEST NORTH DAKOTA

CITY           SKY/WX    TMP DP  RH WIND       PRES   REMARKS
BISMARCK       SUNNY     44  28  53 W10G16    30.13F
DICKINSON      SUNNY     46  27  47 NW15      30.13F
GARRISON         N/A     40  30  67 NW18      30.12F
HETTINGER ARPT SUNNY     49  25  39 NW12      30.15F
$$

NDZ004>008-012>016-024-026-027-054-302100-
NORTHEAST NORTH DAKOTA

CITY           SKY/WX    TMP DP  RH WIND       PRES   REMARKS
GRAND FORKS    PTSUNNY   30  19  63 S12       30.14F
GRND FRKS AFB  SUNNY     31  19  62 S13       30.13F
DEVILS LAKE    SUNNY     32  23  69 W13       30.08F
$$

NDZ022-023-025-028>030-036>039-047>053-302100-
SOUTHEAST NORTH DAKOTA

CITY           SKY/WX    TMP DP  RH WIND       PRES   REMARKS
FARGO          MOSUNNY   30  19  63 S15G25    30.16F WCI  19
JAMESTOWN      SUNNY     37  24  59 W13       30.09F
$$



USA.gov is the U.S. government's official web portal to all federal, state and local government web resources and services.